Time,TemperatureF,DewpointF,PressureIn,WindDirection,WindDirectionDegrees,WindSpeedMPH,WindSpeedGustMPH,Humidity,HourlyPrecipIn,Conditions,Clouds,dailyrainin,SoftwareType,DateUTC
2013-09-14 00:00:00,69.4,52.6,29.76,SW,227,0.0,0.0,55,0.00,,---,0.00,VWS V14.01,2013-09-14 07:00:00,
2013-09-14 00:05:00,69.4,52.6,29.76,SW,227,0.0,0.0,55,0.00,,---,0.00,VWS V14.01,2013-09-14 07:05:00,
2013-09-14 00:10:00,69.6,52.8,29.76,SW,227,0.0,0.0,55,0.00,,---,0.00,VWS V14.01,2013-09-14 07:10:00,
2013-09-14 00:15:00,69.6,52.8,29.76,SW,227,0.0,0.0,55,0.00,,---,0.00,VWS V14.01,2013-09-14 07:15:00,
2013-09-14 00:20:00,69.1,53.2,29.76,SW,227,0.0,0.0,57,0.00,,---,0.00,VWS V14.01,2013-09-14 07:20:00,
2013-09-14 00:25:00,68.5,53.2,29.76,SW,227,0.0,0.0,58,0.00,,---,0.00,VWS V14.01,2013-09-14 07:25:00,
2013-09-14 00:30:00,68.4,53.0,29.76,SW,227,0.0,0.0,58,0.00,,---,0.00,VWS V14.01,2013-09-14 07:30:00,
2013-09-14 00:35:00,68.2,52.9,29.76,SW,227,0.0,0.0,58,0.00,,---,0.00,VWS V14.01,2013-09-14 07:35:00,
2013-09-14 00:40:00,68.2,52.9,29.76,SW,227,0.0,0.0,58,0.00,,---,0.00,VWS V14.01,2013-09-14 07:40:00,
2013-09-14 00:45:00,68.4,52.5,29.76,SW,227,0.0,0.0,57,0.00,,---,0.00,VWS V14.01,2013-09-14 07:45:00,
2013-09-14 00:50:00,68.4,52.5,29.76,SW,227,0.0,0.0,57,0.00,,---,0.00,VWS V14.01,2013-09-14 07:50:00,
2013-09-14 00:55:00,68.2,52.9,29.76,SW,227,0.0,0.0,58,0.00,,---,0.00,VWS V14.01,2013-09-14 07:55:00,
2013-09-14 01:00:00,67.6,53.3,29.76,SW,227,0.0,0.0,60,0.00,,---,0.00,VWS V14.01,2013-09-14 08:00:00,
2013-09-14 01:05:00,67.5,53.1,29.76,SW,227,0.0,0.0,60,0.00,,---,0.00,VWS V14.01,2013-09-14 08:05:00,
2013-09-14 01:10:00,66.6,53.2,29.79,SW,227,0.0,0.0,62,0.00,,---,0.00,VWS V14.01,2013-09-14 08:10:00,
2013-09-14 01:15:00,66.4,53.0,29.79,SW,227,0.0,0.0,62,0.00,,---,0.00,VWS V14.01,2013-09-14 08:15:00,
2013-09-14 01:20:00,66.4,53.4,29.79,SW,227,0.0,0.0,63,0.00,,---,0.00,VWS V14.01,2013-09-14 08:20:00,
2013-09-14 01:25:00,66.6,53.6,29.79,SW,227,0.0,0.0,63,0.00,,---,0.00,VWS V14.01,2013-09-14 08:25:00,
2013-09-14 01:30:00,66.7,53.3,29.79,SW,227,0.0,0.0,62,0.00,,---,0.00,VWS V14.01,2013-09-14 08:30:00,
2013-09-14 01:35:00,66.9,53.5,29.79,SW,227,0.0,0.0,62,0.00,,---,0.00,VWS V14.01,2013-09-14 08:35:00,
2013-09-14 01:40:00,66.9,53.5,29.79,SW,226,0.0,0.0,62,0.00,,---,0.00,VWS V14.01,2013-09-14 08:40:00,
2013-09-14 01:45:00,66.7,52.9,29.79,SW,225,0.0,0.0,61,0.00,,---,0.00,VWS V14.01,2013-09-14 08:45:00,
2013-09-14 01:50:00,66.9,53.0,29.79,SW,223,0.0,0.0,61,0.00,,---,0.00,VWS V14.01,2013-09-14 08:50:00,
2013-09-14 01:55:00,66.9,53.0,29.79,SW,223,0.0,0.0,61,0.00,,---,0.00,VWS V14.01,2013-09-14 08:55:00,
2013-09-14 02:00:00,66.7,52.9,29.79,SW,222,0.0,0.0,61,0.00,,---,0.75,VWS V14.01,2013-09-14 09:00:00,
2013-09-14 02:05:00,66.7,52.9,29.79,SW,222,0.0,0.0,61,0.00,,---,0.00,VWS V14.01,2013-09-14 09:05:00,
2013-09-14 02:11:00,66.9,52.6,29.79,SW,222,0.0,0.0,60,0.00,,---,0.00,VWS V14.01,2013-09-14 09:11:00,
2013-09-14 02:16:00,66.9,53.0,29.79,SW,222,0.0,0.0,61,0.00,,---,0.00,VWS V14.01,2013-09-14 09:16:00,
2013-09-14 02:21:00,66.6,52.7,29.79,SW,222,0.0,0.0,61,0.00,,---,0.00,VWS V14.01,2013-09-14 09:21:00,
2013-09-14 02:26:00,66.2,52.8,29.79,SW,222,0.0,0.0,62,0.00,,---,0.00,VWS V14.01,2013-09-14 09:26:00,
2013-09-14 02:31:00,65.8,53.3,29.79,SW,222,0.0,0.0,64,0.00,,---,0.00,VWS V14.01,2013-09-14 09:31:00,
2013-09-14 02:36:00,65.5,54.2,29.79,SW,222,0.0,0.0,67,0.00,,---,0.00,VWS V14.01,2013-09-14 09:36:00,
2013-09-14 02:41:00,65.1,54.3,29.79,SW,222,0.0,0.0,68,0.00,,---,0.00,VWS V14.01,2013-09-14 09:41:00,
2013-09-14 02:46:00,64.8,54.0,29.79,SW,222,0.0,0.0,68,0.00,,---,0.00,VWS V14.01,2013-09-14 09:46:00,
2013-09-14 02:51:00,64.4,54.0,29.79,SW,222,0.0,0.0,69,0.00,,---,0.00,VWS V14.01,2013-09-14 09:51:00,
2013-09-14 02:56:00,64.4,54.4,29.79,SW,222,0.0,0.0,70,0.00,,---,0.00,VWS V14.01,2013-09-14 09:56:00,
2013-09-14 03:01:00,64.2,54.2,29.79,SW,222,0.0,0.0,70,0.00,,---,0.00,VWS V14.01,2013-09-14 10:01:00,
2013-09-14 03:06:00,64.2,54.2,29.79,SW,222,0.0,0.0,70,0.00,,---,0.00,VWS V14.01,2013-09-14 10:06:00,
2013-09-14 03:11:00,63.9,53.9,29.76,SW,222,0.0,0.0,70,0.00,,---,0.00,VWS V14.01,2013-09-14 10:11:00,
2013-09-14 03:16:00,63.9,53.9,29.76,SW,222,0.0,0.0,70,0.00,,---,0.00,VWS V14.01,2013-09-14 10:16:00,
2013-09-14 03:21:00,64.0,54.1,29.76,SW,222,0.0,0.0,70,0.00,,---,0.00,VWS V14.01,2013-09-14 10:21:00,
2013-09-14 03:26:00,63.9,53.9,29.76,SW,222,0.0,0.0,70,0.00,,---,0.00,VWS V14.01,2013-09-14 10:26:00,
2013-09-14 03:31:00,63.9,54.3,29.76,SW,222,0.0,0.0,71,0.00,,---,0.00,VWS V14.01,2013-09-14 10:31:00,
2013-09-14 03:36:00,64.0,54.1,29.76,SW,222,0.0,0.0,70,0.00,,---,0.00,VWS V14.01,2013-09-14 10:36:00,
2013-09-14 03:41:00,64.4,54.0,29.79,SW,220,0.0,0.0,69,0.00,,---,0.00,VWS V14.01,2013-09-14 10:41:00,
2013-09-14 03:46:00,64.4,54.0,29.79,SW,214,0.0,0.0,69,0.00,,---,0.00,VWS V14.01,2013-09-14 10:46:00,
2013-09-14 03:51:00,64.4,54.0,29.79,SW,214,0.0,0.0,69,0.00,,---,0.00,VWS V14.01,2013-09-14 10:51:00,
2013-09-14 03:56:00,64.2,54.2,29.79,SW,214,0.0,0.0,70,0.00,,---,0.00,VWS V14.01,2013-09-14 10:56:00,
2013-09-14 04:01:00,63.7,53.7,29.79,SW,214,0.0,0.0,70,0.00,,---,0.00,VWS V14.01,2013-09-14 11:01:00,
2013-09-14 04:06:00,63.3,53.4,29.79,SW,214,0.0,0.0,70,0.00,,---,0.00,VWS V14.01,2013-09-14 11:06:00,
2013-09-14 04:11:00,63.5,53.5,29.79,SW,214,0.0,0.0,70,0.00,,---,0.00,VWS V14.01,2013-09-14 11:11:00,
2013-09-14 04:16:00,63.9,53.5,29.79,SW,214,0.0,0.0,69,0.00,,---,0.00,VWS V14.01,2013-09-14 11:16:00,
2013-09-14 04:21:00,64.2,53.8,29.79,SW,216,0.0,0.0,69,0.00,,---,0.00,VWS V14.01,2013-09-14 11:21:00,
2013-09-14 04:26:00,64.4,53.6,29.79,SW,215,0.0,0.0,68,0.00,,---,0.00,VWS V14.01,2013-09-14 11:26:00,
2013-09-14 04:31:00,64.6,53.8,29.79,SW,215,0.0,0.0,68,0.00,,---,0.00,VWS V14.01,2013-09-14 11:31:00,
2013-09-14 04:36:00,64.8,54.0,29.79,SW,215,0.0,0.0,68,0.00,,---,0.00,VWS V14.01,2013-09-14 11:36:00,
2013-09-14 04:41:00,64.8,54.0,29.79,SW,215,0.0,0.0,68,0.00,,---,0.00,VWS V14.01,2013-09-14 11:41:00,
2013-09-14 04:46:00,64.6,53.8,29.79,SW,215,0.0,0.0,68,0.00,,---,0.00,VWS V14.01,2013-09-14 11:46:00,
2013-09-14 04:51:00,64.4,53.6,29.79,SW,215,0.0,0.0,68,0.00,,---,0.00,VWS V14.01,2013-09-14 11:51:00,
2013-09-14 04:56:00,63.9,53.9,29.79,SW,215,0.0,0.0,70,0.00,,---,0.00,VWS V14.01,2013-09-14 11:56:00,
2013-09-14 05:01:00,63.5,53.5,29.79,SW,215,0.0,0.0,70,0.00,,---,0.00,VWS V14.01,2013-09-14 12:01:00,
2013-09-14 05:06:00,63.1,53.6,29.79,SW,215,0.0,0.0,71,0.00,,---,0.00,VWS V14.01,2013-09-14 12:06:00,
2013-09-14 05:11:00,63.0,53.0,29.79,SW,215,0.0,0.0,70,0.00,,---,0.00,VWS V14.01,2013-09-14 12:11:00,
2013-09-14 05:16:00,63.1,53.2,29.79,SW,215,0.0,0.0,70,0.00,,---,0.00,VWS V14.01,2013-09-14 12:16:00,
2013-09-14 05:21:00,63.1,53.2,29.79,SW,215,0.0,0.0,70,0.00,,---,0.00,VWS V14.01,2013-09-14 12:21:00,
2013-09-14 05:26:00,63.0,53.0,29.79,SW,215,0.0,0.0,70,0.00,,---,0.00,VWS V14.01,2013-09-14 12:26:00,
2013-09-14 05:31:00,62.8,53.2,29.79,SW,215,0.0,0.0,71,0.00,,---,0.00,VWS V14.01,2013-09-14 12:31:00,
2013-09-14 05:36:00,62.8,53.2,29.79,SW,215,0.0,0.0,71,0.00,,---,0.00,VWS V14.01,2013-09-14 12:36:00,
2013-09-14 05:41:00,62.8,53.2,29.79,SW,215,0.0,0.0,71,0.00,,---,0.00,VWS V14.01,2013-09-14 12:41:00,
2013-09-14 05:47:00,62.8,53.6,29.79,SW,215,0.0,0.0,72,0.00,,---,0.00,VWS V14.01,2013-09-14 12:47:00,
2013-09-14 05:52:00,62.6,53.5,29.79,SW,215,0.0,0.0,72,0.00,,---,0.00,VWS V14.01,2013-09-14 12:52:00,
2013-09-14 05:57:00,62.2,53.1,29.79,SW,215,0.0,0.0,72,0.00,,---,0.00,VWS V14.01,2013-09-14 12:57:00,
2013-09-14 06:02:00,62.2,53.5,29.79,SW,215,0.0,0.0,73,0.00,,---,0.00,VWS V14.01,2013-09-14 13:02:00,
2013-09-14 06:07:00,61.9,53.5,29.79,SW,215,0.0,0.0,74,0.00,,---,0.00,VWS V14.01,2013-09-14 13:07:00,
2013-09-14 06:12:00,61.7,53.3,29.79,SW,215,0.0,0.0,74,0.00,,---,0.00,VWS V14.01,2013-09-14 13:12:00,
2013-09-14 06:17:00,61.7,53.7,29.79,SW,215,0.0,0.0,75,0.00,,---,0.00,VWS V14.01,2013-09-14 13:17:00,
2013-09-14 06:22:00,61.7,53.7,29.79,SW,215,0.0,0.0,75,0.00,,---,0.00,VWS V14.01,2013-09-14 13:22:00,
2013-09-14 06:27:00,61.9,53.9,29.79,SW,215,0.0,0.0,75,0.00,,---,0.00,VWS V14.01,2013-09-14 13:27:00,
2013-09-14 06:32:00,62.2,53.9,29.79,SW,215,0.0,0.0,74,0.00,,---,0.00,VWS V14.01,2013-09-14 13:32:00,
2013-09-14 06:37:00,62.6,53.5,29.79,SW,215,0.0,0.0,72,0.00,,---,0.00,VWS V14.01,2013-09-14 13:37:00,
2013-09-14 06:42:00,63.3,53.8,29.79,SW,215,0.0,0.0,71,0.00,,---,0.00,VWS V14.01,2013-09-14 13:42:00,
2013-09-14 06:47:00,63.9,54.3,29.79,SW,215,0.0,0.0,71,0.00,,---,0.00,VWS V14.01,2013-09-14 13:47:00,
2013-09-14 06:52:00,64.8,55.2,29.79,SW,215,0.0,0.0,71,0.00,,---,0.00,VWS V14.01,2013-09-14 13:52:00,
2013-09-14 06:57:00,65.1,55.5,29.82,SW,215,0.0,0.0,71,0.00,,---,0.00,VWS V14.01,2013-09-14 13:57:00,
2013-09-14 07:02:00,66.4,56.3,29.82,SW,215,0.0,0.0,70,0.00,,---,0.00,VWS V14.01,2013-09-14 14:02:00,
2013-09-14 07:07:00,67.3,56.8,29.82,SW,215,0.0,0.0,69,0.00,,---,0.00,VWS V14.01,2013-09-14 14:07:00,
2013-09-14 07:12:00,67.8,56.5,29.82,SW,215,0.0,0.0,67,0.00,,---,0.00,VWS V14.01,2013-09-14 14:12:00,
2013-09-14 07:17:00,67.8,56.1,29.82,SW,226,0.0,0.0,66,0.00,,---,0.00,VWS V14.01,2013-09-14 14:17:00,
2013-09-14 07:22:00,68.0,55.8,29.82,SW,226,0.0,0.0,65,0.00,,---,0.00,VWS V14.01,2013-09-14 14:22:00,
2013-09-14 07:27:00,68.4,55.7,29.82,SW,227,0.0,0.0,64,0.00,,---,0.00,VWS V14.01,2013-09-14 14:27:00,
2013-09-14 07:32:00,68.5,55.5,29.82,NW,321,0.0,0.0,63,0.00,,---,0.00,VWS V14.01,2013-09-14 14:32:00,
2013-09-14 07:37:00,68.7,55.6,29.82,NNW,331,0.0,0.0,63,0.00,,---,0.00,VWS V14.01,2013-09-14 14:37:00,
2013-09-14 07:42:00,69.1,55.5,29.82,NNW,329,0.0,0.0,62,0.00,,---,0.00,VWS V14.01,2013-09-14 14:42:00,
2013-09-14 07:47:00,69.3,56.1,29.82,NW,316,0.0,0.0,63,0.00,,---,0.00,VWS V14.01,2013-09-14 14:47:00,
2013-09-14 07:52:00,69.4,55.9,29.82,NW,309,0.0,0.0,62,0.00,,---,0.00,VWS V14.01,2013-09-14 14:52:00,
2013-09-14 07:57:00,69.6,55.6,29.82,NW,309,0.0,0.0,61,0.00,,---,0.00,VWS V14.01,2013-09-14 14:57:00,
2013-09-14 08:02:00,70.2,55.6,29.82,WNW,295,0.0,0.0,60,0.00,,---,0.00,VWS V14.01,2013-09-14 15:02:00,
2013-09-14 08:07:00,70.3,55.3,29.82,NW,309,0.0,0.0,59,0.00,,---,0.00,VWS V14.01,2013-09-14 15:07:00,
2013-09-14 08:12:00,70.7,55.7,29.82,NW,309,0.0,0.0,59,0.00,,---,0.00,VWS V14.01,2013-09-14 15:12:00,
2013-09-14 08:17:00,71.1,56.0,29.82,NW,306,0.0,0.0,59,0.00,,---,0.00,VWS V14.01,2013-09-14 15:17:00,
2013-09-14 08:22:00,71.2,55.7,29.82,NW,306,0.0,0.0,58,0.00,,---,0.00,VWS V14.01,2013-09-14 15:22:00,
2013-09-14 08:27:00,71.8,56.2,29.82,NNW,328,0.0,0.0,58,0.00,,---,0.00,VWS V14.01,2013-09-14 15:27:00,
2013-09-14 08:32:00,72.0,56.4,29.82,NNW,328,0.0,0.0,58,0.00,,---,0.00,VWS V14.01,2013-09-14 15:32:00,
2013-09-14 08:37:00,72.5,56.4,29.82,WNW,289,0.0,0.0,57,0.00,,---,0.00,VWS V14.01,2013-09-14 15:37:00,
2013-09-14 08:42:00,72.9,56.8,29.82,WNW,293,0.0,0.0,57,0.00,,---,0.00,VWS V14.01,2013-09-14 15:42:00,
2013-09-14 08:47:00,73.2,57.1,29.82,WNW,296,0.0,0.0,57,0.00,,---,0.00,VWS V14.01,2013-09-14 15:47:00,
2013-09-14 08:53:00,73.6,56.9,29.82,WNW,296,0.0,0.0,56,0.00,,---,0.00,VWS V14.01,2013-09-14 15:53:00,
2013-09-14 08:58:00,73.8,57.1,29.82,NW,310,0.0,0.0,56,0.00,,---,0.00,VWS V14.01,2013-09-14 15:58:00,
2013-09-14 09:03:00,74.1,57.4,29.82,WNW,301,0.0,0.0,56,0.00,,---,0.00,VWS V14.01,2013-09-14 16:03:00,
2013-09-14 09:08:00,74.3,57.6,29.82,NW,315,0.0,0.0,56,0.00,,---,0.00,VWS V14.01,2013-09-14 16:08:00,
2013-09-14 09:13:00,74.7,56.4,29.82,NW,315,0.0,0.0,53,0.00,,---,0.00,VWS V14.01,2013-09-14 16:13:00,
2013-09-14 09:18:00,75.0,55.7,29.82,NW,308,0.0,0.0,51,0.00,,---,0.00,VWS V14.01,2013-09-14 16:18:00,
2013-09-14 09:23:00,75.2,56.9,29.82,NW,318,0.0,0.0,53,0.00,,---,0.00,VWS V14.01,2013-09-14 16:23:00,
2013-09-14 09:28:00,75.6,57.2,29.82,NW,318,0.0,0.0,53,0.00,,---,0.00,VWS V14.01,2013-09-14 16:28:00,
2013-09-14 09:33:00,75.7,55.8,29.82,NNW,335,0.0,0.0,50,0.00,,---,0.00,VWS V14.01,2013-09-14 16:33:00,
2013-09-14 09:38:00,76.1,56.1,29.82,NNW,340,0.0,0.0,50,0.00,,---,0.00,VWS V14.01,2013-09-14 16:38:00,
2013-09-14 09:43:00,76.5,56.5,29.82,NW,305,0.0,0.0,50,0.00,,---,0.00,VWS V14.01,2013-09-14 16:43:00,
2013-09-14 09:48:00,76.8,56.8,29.82,NW,305,0.0,0.0,50,0.00,,---,0.00,VWS V14.01,2013-09-14 16:48:00,
2013-09-14 09:53:00,77.4,57.3,29.82,North,353,0.0,0.0,50,0.00,,---,0.00,VWS V14.01,2013-09-14 16:53:00,
2013-09-14 09:58:00,77.4,56.2,29.82,North,5,0.0,0.0,48,0.00,,---,0.00,VWS V14.01,2013-09-14 16:58:00,
2013-09-14 10:03:00,77.7,56.5,29.82,NNW,341,0.0,0.0,48,0.00,,---,0.00,VWS V14.01,2013-09-14 17:03:00,
2013-09-14 10:08:00,78.1,58.0,29.82,WNW,299,0.0,0.0,50,0.00,,---,0.00,VWS V14.01,2013-09-14 17:08:00,
2013-09-14 10:13:00,78.6,58.4,29.82,NW,306,0.0,0.0,50,0.00,,---,0.00,VWS V14.01,2013-09-14 17:13:00,
2013-09-14 10:18:00,79.2,58.9,29.82,NNE,18,0.0,0.0,50,0.00,,---,0.00,VWS V14.01,2013-09-14 17:18:00,
2013-09-14 10:23:00,79.0,57.0,29.82,NW,325,4.5,4.5,47,0.00,,---,0.00,VWS V14.01,2013-09-14 17:23:00,
2013-09-14 10:28:00,79.0,57.0,29.82,NNW,333,0.0,0.0,47,0.00,,---,0.00,VWS V14.01,2013-09-14 17:28:00,
2013-09-14 10:33:00,79.2,57.2,29.82,NNE,18,4.9,4.9,47,0.00,,---,0.00,VWS V14.01,2013-09-14 17:33:00,
2013-09-14 10:38:00,79.5,57.5,29.82,SE,131,0.0,0.0,47,0.00,,---,0.00,VWS V14.01,2013-09-14 17:38:00,
2013-09-14 10:43:00,79.7,57.7,29.82,SSW,212,0.0,0.0,47,0.00,,---,0.00,VWS V14.01,2013-09-14 17:43:00,
2013-09-14 10:48:00,80.2,57.0,29.82,NNE,29,5.8,5.8,45,0.00,,---,0.00,VWS V14.01,2013-09-14 17:48:00,
2013-09-14 10:53:00,80.2,58.2,29.82,NE,47,4.0,4.0,47,0.00,,---,0.00,VWS V14.01,2013-09-14 17:53:00,
2013-09-14 10:58:00,80.2,58.2,29.82,East,81,0.0,0.0,47,0.00,,---,0.00,VWS V14.01,2013-09-14 17:58:00,
2013-09-14 11:03:00,80.4,58.4,29.82,ESE,117,0.0,0.0,47,0.00,,---,0.00,VWS V14.01,2013-09-14 18:03:00,
2013-09-14 11:08:00,81.0,57.0,29.82,South,170,0.0,0.0,44,0.00,,---,0.00,VWS V14.01,2013-09-14 18:08:00,
2013-09-14 11:13:00,81.3,57.3,29.82,East,98,0.0,0.0,44,0.00,,---,0.00,VWS V14.01,2013-09-14 18:13:00,
2013-09-14 11:18:00,81.7,57.7,29.82,ESE,108,5.4,5.4,44,0.00,,---,0.00,VWS V14.01,2013-09-14 18:18:00,
2013-09-14 11:23:00,82.2,58.2,29.82,NNE,21,5.8,5.8,44,0.00,,---,0.00,VWS V14.01,2013-09-14 18:23:00,
2013-09-14 11:28:00,82.0,58.0,29.82,NNE,15,0.0,0.0,44,0.00,,---,0.00,VWS V14.01,2013-09-14 18:28:00,
2013-09-14 11:33:00,82.0,58.0,29.82,NE,35,4.0,5.8,44,0.00,,---,0.00,VWS V14.01,2013-09-14 18:33:00,
2013-09-14 11:38:00,81.9,57.8,29.79,NE,54,3.6,3.6,44,0.00,,---,0.00,VWS V14.01,2013-09-14 18:38:00,
2013-09-14 11:43:00,81.9,57.8,29.79,East,86,0.0,0.0,44,0.00,,---,0.00,VWS V14.01,2013-09-14 18:43:00,
2013-09-14 11:48:00,81.5,57.5,29.79,East,79,0.0,0.0,44,0.00,,---,0.00,VWS V14.01,2013-09-14 18:48:00,
2013-09-14 11:54:00,81.5,57.5,29.79,East,82,0.0,0.0,44,0.00,,---,0.00,VWS V14.01,2013-09-14 18:54:00,
2013-09-14 11:59:00,82.0,56.7,29.79,ESE,106,0.0,0.0,42,0.00,,---,0.00,VWS V14.01,2013-09-14 18:59:00,
2013-09-14 12:04:00,82.6,56.5,29.79,East,92,0.0,0.0,41,0.00,,---,0.00,VWS V14.01,2013-09-14 19:04:00,
2013-09-14 12:09:00,82.6,56.5,29.79,ENE,67,0.0,0.0,41,0.00,,---,0.00,VWS V14.01,2013-09-14 19:09:00,
2013-09-14 12:14:00,83.3,59.1,29.79,ESE,115,0.0,0.0,44,0.00,,---,0.00,VWS V14.01,2013-09-14 19:14:00,
2013-09-14 12:19:00,84.2,59.3,29.79,SE,134,0.0,0.0,43,0.00,,---,0.00,VWS V14.01,2013-09-14 19:19:00,
2013-09-14 12:24:00,84.7,58.5,29.79,SE,144,0.0,4.0,41,0.00,,---,0.00,VWS V14.01,2013-09-14 19:24:00,
2013-09-14 12:29:00,84.7,58.5,29.79,ESE,105,0.0,0.0,41,0.00,,---,0.00,VWS V14.01,2013-09-14 19:29:00,
2013-09-14 12:34:00,84.9,58.6,29.79,East,100,3.6,3.6,41,0.00,,---,0.00,VWS V14.01,2013-09-14 19:34:00,
2013-09-14 12:39:00,84.9,58.6,29.79,East,81,0.0,0.0,41,0.00,,---,0.00,VWS V14.01,2013-09-14 19:39:00,
2013-09-14 12:44:00,85.3,58.9,29.76,SW,233,3.6,4.0,41,0.00,,---,0.00,VWS V14.01,2013-09-14 19:44:00,
2013-09-14 12:49:00,85.6,59.3,29.76,SE,135,0.0,0.0,41,0.00,,---,0.00,VWS V14.01,2013-09-14 19:49:00,
2013-09-14 12:54:00,86.0,59.6,29.76,ESE,118,0.0,0.0,41,0.00,,---,0.00,VWS V14.01,2013-09-14 19:54:00,
2013-09-14 12:59:00,85.8,59.4,29.76,East,89,0.0,0.0,41,0.00,,---,0.00,VWS V14.01,2013-09-14 19:59:00,
2013-09-14 13:04:00,86.4,57.8,29.76,West,260,0.0,0.0,38,0.00,,---,0.00,VWS V14.01,2013-09-14 20:04:00,
2013-09-14 13:09:00,86.5,57.9,29.76,East,85,0.0,0.0,38,0.00,,---,0.00,VWS V14.01,2013-09-14 20:09:00,
2013-09-14 13:14:00,86.9,58.3,29.76,ESE,113,0.0,0.0,38,0.00,,---,0.00,VWS V14.01,2013-09-14 20:14:00,
2013-09-14 13:19:00,87.4,58.7,29.76,NNE,14,0.0,0.0,38,0.00,,---,0.00,VWS V14.01,2013-09-14 20:19:00,
2013-09-14 13:24:00,87.8,59.1,29.76,NNE,12,0.0,0.0,38,0.00,,---,0.00,VWS V14.01,2013-09-14 20:24:00,
2013-09-14 13:29:00,87.8,59.1,29.76,North,4,3.6,3.6,38,0.00,,---,0.00,VWS V14.01,2013-09-14 20:29:00,
2013-09-14 13:34:00,88.0,59.2,29.76,ESE,115,0.0,0.0,38,0.00,,---,0.00,VWS V14.01,2013-09-14 20:34:00,
2013-09-14 13:40:00,87.8,59.1,29.73,NNE,31,0.0,0.0,38,0.00,,---,0.00,VWS V14.01,2013-09-14 20:40:00,
2013-09-14 13:45:00,88.2,59.4,29.73,North,357,0.0,0.0,38,0.00,,---,0.00,VWS V14.01,2013-09-14 20:45:00,
2013-09-14 13:50:00,88.7,59.9,29.73,North,0,0.0,0.0,38,0.00,,---,0.00,VWS V14.01,2013-09-14 20:50:00,
2013-09-14 13:55:00,88.3,59.5,29.73,North,357,0.0,0.0,38,0.00,,---,0.00,VWS V14.01,2013-09-14 20:55:00,
2013-09-14 14:00:00,88.3,59.5,29.73,ESE,107,0.0,0.0,38,0.00,,---,0.00,VWS V14.01,2013-09-14 21:00:00,
2013-09-14 14:05:00,88.2,59.4,29.73,ENE,77,0.0,0.0,38,0.00,,---,0.00,VWS V14.01,2013-09-14 21:05:00,
2013-09-14 14:10:00,88.3,59.5,29.73,North,2,4.0,4.0,38,0.00,,---,0.00,VWS V14.01,2013-09-14 21:10:00,
2013-09-14 14:15:00,88.3,59.5,29.73,ESE,110,3.6,3.6,38,0.00,,---,0.00,VWS V14.01,2013-09-14 21:15:00,
2013-09-14 14:20:00,88.3,59.5,29.73,East,86,4.0,4.0,38,0.00,,---,0.00,VWS V14.01,2013-09-14 21:20:00,
2013-09-14 14:25:00,88.3,59.5,29.73,North,2,3.6,4.0,38,0.00,,---,0.00,VWS V14.01,2013-09-14 21:25:00,
2013-09-14 14:30:00,88.2,58.6,29.73,ENE,63,5.4,5.4,37,0.00,,---,0.00,VWS V14.01,2013-09-14 21:30:00,
2013-09-14 14:35:00,88.2,59.4,29.73,ESE,122,0.0,0.0,38,0.00,,---,0.00,VWS V14.01,2013-09-14 21:35:00,
2013-09-14 14:40:00,88.2,58.6,29.73,ENE,68,0.0,0.0,37,0.00,,---,0.00,VWS V14.01,2013-09-14 21:40:00,
2013-09-14 14:45:00,88.3,58.8,29.73,ENE,75,0.0,0.0,37,0.00,,---,0.00,VWS V14.01,2013-09-14 21:45:00,
2013-09-14 14:50:00,88.2,58.6,29.73,ESE,104,0.0,0.0,37,0.00,,---,0.00,VWS V14.01,2013-09-14 21:50:00,
2013-09-14 14:55:00,86.5,57.9,29.73,NE,55,0.0,0.0,38,0.00,,---,0.00,VWS V14.01,2013-09-14 21:55:00,
2013-09-14 15:01:00,87.1,58.4,29.73,ESE,109,4.9,4.9,38,0.00,,---,0.00,VWS V14.01,2013-09-14 22:01:00,
2013-09-14 15:06:00,87.4,58.7,29.73,SE,141,7.6,7.6,38,0.00,,---,0.00,VWS V14.01,2013-09-14 22:06:00,
2013-09-14 15:11:00,87.6,58.9,29.73,SE,134,0.0,0.0,38,0.00,,---,0.00,VWS V14.01,2013-09-14 22:11:00,
2013-09-14 15:16:00,87.4,58.7,29.73,ESE,109,0.0,0.0,38,0.00,,---,0.00,VWS V14.01,2013-09-14 22:16:00,
2013-09-14 15:21:00,86.4,57.8,29.73,SE,126,0.0,0.0,38,0.00,,---,0.00,VWS V14.01,2013-09-14 22:21:00,
2013-09-14 15:26:00,85.5,57.0,29.73,ESE,105,0.0,0.0,38,0.00,,---,0.00,VWS V14.01,2013-09-14 22:26:00,
2013-09-14 15:31:00,85.1,56.7,29.73,ESE,116,0.0,0.0,38,0.00,,---,0.00,VWS V14.01,2013-09-14 22:31:00,
2013-09-14 15:36:00,84.4,56.0,29.73,ESE,116,0.0,0.0,38,0.00,,---,0.00,VWS V14.01,2013-09-14 22:36:00,
2013-09-14 15:41:00,84.0,56.4,29.73,ESE,116,0.0,0.0,39,0.00,,---,0.00,VWS V14.01,2013-09-14 22:41:00,
2013-09-14 15:46:00,83.7,56.1,29.73,ESE,104,6.3,6.3,39,0.00,,---,0.00,VWS V14.01,2013-09-14 22:46:00,
2013-09-14 15:49:00,83.5,55.9,29.70,ESE,104,6.3,6.3,39,0.00,,---,0.00,VWS V14.01,2013-09-14 22:49:00,
2013-09-14 15:54:00,83.3,55.8,29.70,ESE,104,6.3,6.3,39,0.00,,---,0.00,VWS V14.01,2013-09-14 22:54:00,
2013-09-14 15:59:00,83.1,55.6,29.70,ESE,114,3.6,3.6,39,0.00,,---,0.00,VWS V14.01,2013-09-14 22:59:00,
2013-09-14 16:04:00,82.8,55.3,29.70,ESE,114,3.6,3.6,39,0.00,,---,0.00,VWS V14.01,2013-09-14 23:04:00,
2013-09-14 16:09:00,82.6,55.1,29.70,ESE,114,3.6,3.6,39,0.00,,---,0.00,VWS V14.01,2013-09-14 23:09:00,
2013-09-14 16:14:00,82.6,55.1,29.73,ESE,121,4.0,5.4,39,0.00,,---,0.00,VWS V14.01,2013-09-14 23:14:00,
2013-09-14 16:19:00,82.4,55.0,29.73,ESE,116,3.6,6.3,39,0.00,,---,0.00,VWS V14.01,2013-09-14 23:19:00,
2013-09-14 16:24:00,82.2,54.8,29.73,SE,126,4.0,4.0,39,0.00,,---,0.00,VWS V14.01,2013-09-14 23:24:00,
2013-09-14 16:29:00,82.0,54.7,29.73,SE,124,5.8,5.8,39,0.00,,---,0.00,VWS V14.01,2013-09-14 23:29:00,
2013-09-14 16:34:00,82.0,54.7,29.73,SE,137,0.0,0.0,39,0.00,,---,0.00,VWS V14.01,2013-09-14 23:34:00,
2013-09-14 16:39:00,81.9,54.5,29.73,SSE,150,4.0,4.0,39,0.00,,---,0.00,VWS V14.01,2013-09-14 23:39:00,
2013-09-14 16:44:00,81.9,54.5,29.70,SSE,149,0.0,0.0,39,0.00,,---,0.00,VWS V14.01,2013-09-14 23:44:00,
2013-09-14 16:49:00,81.9,53.1,29.70,SSE,166,3.1,3.1,37,0.00,,---,0.00,VWS V14.01,2013-09-14 23:49:00,
2013-09-14 16:54:00,81.9,53.1,29.73,South,172,2.7,3.6,37,0.00,,---,0.00,VWS V14.01,2013-09-14 23:54:00,
2013-09-14 16:59:00,82.0,53.2,29.73,South,176,5.4,5.4,37,0.00,,---,0.00,VWS V14.01,2013-09-14 23:59:00,
2013-09-14 17:05:00,82.0,53.2,29.73,SSE,156,8.1,8.1,37,0.00,,---,0.00,VWS V14.01,2013-09-15 00:05:00,
2013-09-14 17:10:00,82.8,53.9,29.73,SSE,163,0.0,0.0,37,0.00,,---,0.00,VWS V14.01,2013-09-15 00:10:00,
2013-09-14 17:15:00,82.9,54.0,29.73,South,172,0.0,0.0,37,0.00,,---,0.00,VWS V14.01,2013-09-15 00:15:00,
2013-09-14 17:20:00,83.1,54.2,29.73,SSE,167,0.0,0.0,37,0.00,,---,0.00,VWS V14.01,2013-09-15 00:20:00,
2013-09-14 17:25:00,82.9,54.0,29.73,SSE,155,0.0,0.0,37,0.00,,---,0.00,VWS V14.01,2013-09-15 00:25:00,
2013-09-14 17:30:00,82.9,54.0,29.73,South,186,0.0,0.0,37,0.00,,---,0.00,VWS V14.01,2013-09-15 00:30:00,
2013-09-14 17:35:00,82.9,54.0,29.73,SSE,157,0.0,0.0,37,0.00,,---,0.00,VWS V14.01,2013-09-15 00:35:00,
2013-09-14 17:40:00,83.1,54.2,29.73,South,179,0.0,0.0,37,0.00,,---,0.00,VWS V14.01,2013-09-15 00:40:00,
2013-09-14 17:45:00,83.1,54.2,29.73,South,176,0.0,0.0,37,0.00,,---,0.00,VWS V14.01,2013-09-15 00:45:00,
2013-09-14 17:50:00,82.9,54.0,29.70,SSW,206,0.0,0.0,37,0.00,,---,0.00,VWS V14.01,2013-09-15 00:50:00,
2013-09-14 17:55:00,82.8,53.9,29.70,WSW,246,0.0,0.0,37,0.00,,---,0.00,VWS V14.01,2013-09-15 00:55:00,
2013-09-14 18:00:00,82.4,53.5,29.70,WSW,244,0.0,0.0,37,0.00,,---,0.00,VWS V14.01,2013-09-15 01:00:00,
2013-09-14 18:05:00,81.7,52.9,29.70,WSW,237,0.0,0.0,37,0.00,,---,0.00,VWS V14.01,2013-09-15 01:05:00,
2013-09-14 18:10:00,81.3,52.6,29.70,SW,229,0.0,0.0,37,0.00,,---,0.00,VWS V14.01,2013-09-15 01:10:00,
2013-09-14 18:15:00,81.0,52.3,29.73,SW,236,0.0,0.0,37,0.00,,---,0.00,VWS V14.01,2013-09-15 01:15:00,
2013-09-14 18:20:00,81.0,52.3,29.73,SW,220,0.0,0.0,37,0.00,,---,0.00,VWS V14.01,2013-09-15 01:20:00,
2013-09-14 18:25:00,81.1,52.4,29.73,SW,220,0.0,0.0,37,0.00,,---,0.00,VWS V14.01,2013-09-15 01:25:00,
2013-09-14 18:30:00,81.1,52.4,29.73,SW,223,0.0,0.0,37,0.00,,---,0.00,VWS V14.01,2013-09-15 01:30:00,
2013-09-14 18:35:00,80.8,52.1,29.73,SW,224,0.0,0.0,37,0.00,,---,0.00,VWS V14.01,2013-09-15 01:35:00,
2013-09-14 18:40:00,80.8,52.1,29.73,West,265,0.0,0.0,37,0.00,,---,0.00,VWS V14.01,2013-09-15 01:40:00,
2013-09-14 18:45:00,80.4,51.8,29.73,WNW,287,0.0,0.0,37,0.00,,---,0.00,VWS V14.01,2013-09-15 01:45:00,
2013-09-14 18:50:00,78.6,50.9,29.73,North,3,0.0,0.0,38,0.00,,---,0.00,VWS V14.01,2013-09-15 01:50:00,
2013-09-14 18:55:00,77.2,49.6,29.76,NNW,334,0.0,0.0,38,0.00,,---,0.00,VWS V14.01,2013-09-15 01:55:00,
2013-09-14 19:00:00,76.6,49.2,29.76,NNE,18,0.0,0.0,38,0.00,,---,0.00,VWS V14.01,2013-09-15 02:00:00,
2013-09-14 19:05:00,76.1,48.7,29.76,North,353,0.0,0.0,38,0.00,,---,0.00,VWS V14.01,2013-09-15 02:05:00,
2013-09-14 19:10:00,76.1,48.7,29.76,West,265,0.0,0.0,38,0.00,,---,0.00,VWS V14.01,2013-09-15 02:10:00,
2013-09-14 19:15:00,75.6,49.6,29.76,SW,222,3.6,3.6,40,0.00,,---,0.00,VWS V14.01,2013-09-15 02:15:00,
2013-09-14 19:20:00,75.4,49.4,29.76,SW,232,3.1,3.1,40,0.00,,---,0.00,VWS V14.01,2013-09-15 02:20:00,
2013-09-14 19:25:00,75.2,49.2,29.76,WSW,247,5.8,5.8,40,0.00,,---,0.00,VWS V14.01,2013-09-15 02:25:00,
2013-09-14 19:31:00,75.2,49.2,29.76,WSW,258,0.0,5.4,40,0.00,,---,0.00,VWS V14.01,2013-09-15 02:31:00,
2013-09-14 19:36:00,75.2,49.2,29.76,WSW,257,0.0,0.0,40,0.00,,---,0.00,VWS V14.01,2013-09-15 02:36:00,
2013-09-14 19:41:00,75.0,49.8,29.79,WSW,257,0.0,0.0,41,0.00,,---,0.00,VWS V14.01,2013-09-15 02:41:00,
2013-09-14 19:46:00,75.0,49.8,29.79,West,268,0.0,0.0,41,0.00,,---,0.00,VWS V14.01,2013-09-15 02:46:00,
2013-09-14 19:51:00,75.2,49.2,29.79,West,268,0.0,0.0,40,0.00,,---,0.00,VWS V14.01,2013-09-15 02:51:00,
2013-09-14 19:56:00,75.0,49.8,29.79,West,267,0.0,0.0,41,0.00,,---,0.00,VWS V14.01,2013-09-15 02:56:00,
2013-09-14 20:01:00,74.8,49.6,29.79,West,270,0.0,0.0,41,0.00,,---,0.00,VWS V14.01,2013-09-15 03:01:00,
2013-09-14 20:06:00,74.7,49.4,29.79,West,267,0.0,0.0,41,0.00,,---,0.00,VWS V14.01,2013-09-15 03:06:00,
2013-09-14 20:11:00,74.7,49.4,29.79,West,267,0.0,0.0,41,0.00,,---,0.00,VWS V14.01,2013-09-15 03:11:00,
2013-09-14 20:16:00,74.1,48.9,29.79,West,267,0.0,0.0,41,0.00,,---,0.00,VWS V14.01,2013-09-15 03:16:00,
2013-09-14 20:21:00,73.8,48.6,29.79,West,267,0.0,0.0,41,0.00,,---,0.00,VWS V14.01,2013-09-15 03:21:00,
2013-09-14 20:26:00,73.8,48.6,29.79,West,267,0.0,0.0,41,0.00,,---,0.00,VWS V14.01,2013-09-15 03:26:00,
2013-09-14 20:31:00,73.2,48.1,29.79,West,267,0.0,0.0,41,0.00,,---,0.00,VWS V14.01,2013-09-15 03:31:00,
2013-09-14 20:36:00,73.2,48.1,29.79,West,267,0.0,0.0,41,0.00,,---,0.00,VWS V14.01,2013-09-15 03:36:00,
2013-09-14 20:41:00,72.7,49.5,29.79,West,267,0.0,0.0,44,0.00,,---,0.00,VWS V14.01,2013-09-15 03:41:00,
2013-09-14 20:46:00,72.5,49.4,29.79,West,267,0.0,0.0,44,0.00,,---,0.00,VWS V14.01,2013-09-15 03:46:00,
2013-09-14 20:51:00,72.1,49.0,29.79,West,267,0.0,0.0,44,0.00,,---,0.00,VWS V14.01,2013-09-15 03:51:00,
2013-09-14 20:56:00,71.8,49.9,29.79,West,267,0.0,0.0,46,0.00,,---,0.00,VWS V14.01,2013-09-15 03:56:00,
2013-09-14 21:01:00,71.4,51.3,29.79,West,267,0.0,0.0,49,0.00,,---,0.00,VWS V14.01,2013-09-15 04:01:00,
2013-09-14 21:02:00,71.2,51.1,29.79,West,267,0.0,0.0,49,0.00,,---,0.00,VWS V14.01,2013-09-15 04:02:00,
2013-09-14 21:03:00,71.1,51.0,29.79,West,267,0.0,0.0,49,0.00,,---,0.00,VWS V14.01,2013-09-15 04:03:00,
2013-09-14 21:08:00,70.7,50.6,29.79,West,267,0.0,0.0,49,0.00,,---,0.00,VWS V14.01,2013-09-15 04:08:00,
2013-09-14 21:13:00,70.5,50.5,29.79,West,267,0.0,0.0,49,0.00,,---,0.00,VWS V14.01,2013-09-15 04:13:00,
2013-09-14 21:18:00,70.5,50.5,29.79,West,267,0.0,0.0,49,0.00,,---,0.00,VWS V14.01,2013-09-15 04:18:00,
2013-09-14 21:23:00,70.7,50.6,29.79,West,267,0.0,0.0,49,0.00,,---,0.00,VWS V14.01,2013-09-15 04:23:00,
2013-09-14 21:28:00,70.7,50.6,29.79,West,267,0.0,0.0,49,0.00,,---,0.00,VWS V14.01,2013-09-15 04:28:00,
2013-09-14 21:33:00,70.5,50.5,29.79,West,267,0.0,0.0,49,0.00,,---,0.00,VWS V14.01,2013-09-15 04:33:00,
2013-09-14 21:38:00,70.3,50.3,29.79,West,267,0.0,0.0,49,0.00,,---,0.00,VWS V14.01,2013-09-15 04:38:00,
2013-09-14 21:43:00,70.0,50.0,29.79,West,267,0.0,0.0,49,0.00,,---,0.00,VWS V14.01,2013-09-15 04:43:00,
2013-09-14 21:48:00,70.0,50.0,29.79,West,267,0.0,0.0,49,0.00,,---,0.00,VWS V14.01,2013-09-15 04:48:00,
2013-09-14 21:53:00,69.8,49.8,29.79,West,266,0.0,0.0,49,0.00,,---,0.00,VWS V14.01,2013-09-15 04:53:00,
2013-09-14 21:58:00,69.6,50.2,29.79,West,266,0.0,0.0,50,0.00,,---,0.00,VWS V14.01,2013-09-15 04:58:00,
2013-09-14 22:03:00,69.4,50.0,29.79,West,266,0.0,0.0,50,0.00,,---,0.00,VWS V14.01,2013-09-15 05:03:00,
2013-09-14 22:09:00,69.6,50.2,29.79,West,266,0.0,0.0,50,0.00,,---,0.00,VWS V14.01,2013-09-15 05:09:00,
2013-09-14 22:14:00,69.6,50.2,29.79,West,266,0.0,0.0,50,0.00,,---,0.00,VWS V14.01,2013-09-15 05:14:00,
2013-09-14 22:19:00,69.1,50.7,29.79,West,266,0.0,0.0,52,0.00,,---,0.00,VWS V14.01,2013-09-15 05:19:00,
2013-09-14 22:24:00,68.9,50.6,29.79,West,266,0.0,0.0,52,0.00,,---,0.00,VWS V14.01,2013-09-15 05:24:00,
2013-09-14 22:29:00,68.0,52.7,29.79,West,266,0.0,0.0,58,0.00,,---,0.00,VWS V14.01,2013-09-15 05:29:00,
2013-09-14 22:34:00,67.8,52.5,29.79,West,266,0.0,0.0,58,0.00,,---,0.00,VWS V14.01,2013-09-15 05:34:00,
2013-09-14 22:39:00,67.6,52.8,29.79,West,266,0.0,0.0,59,0.00,,---,0.00,VWS V14.01,2013-09-15 05:39:00,
2013-09-14 22:44:00,67.6,53.3,29.79,West,266,0.0,0.0,60,0.00,,---,0.00,VWS V14.01,2013-09-15 05:44:00,
2013-09-14 22:49:00,67.8,53.4,29.79,West,266,0.0,0.0,60,0.00,,---,0.00,VWS V14.01,2013-09-15 05:49:00,
2013-09-14 22:54:00,67.8,53.4,29.79,West,266,0.0,0.0,60,0.00,,---,0.00,VWS V14.01,2013-09-15 05:54:00,
2013-09-14 22:59:00,67.8,53.4,29.79,WSW,258,0.0,0.0,60,0.00,,---,0.00,VWS V14.01,2013-09-15 05:59:00,
2013-09-14 23:04:00,67.8,53.4,29.79,WSW,247,0.0,0.0,60,0.00,,---,0.00,VWS V14.01,2013-09-15 06:04:00,
2013-09-14 23:09:00,67.8,53.4,29.79,SW,233,4.0,4.0,60,0.00,,---,0.00,VWS V14.01,2013-09-15 06:09:00,
2013-09-14 23:14:00,67.8,53.4,29.82,SW,224,0.0,0.0,60,0.00,,---,0.00,VWS V14.01,2013-09-15 06:14:00,
2013-09-14 23:19:00,67.8,53.4,29.82,SW,224,0.0,0.0,60,0.00,,---,0.00,VWS V14.01,2013-09-15 06:19:00,
2013-09-14 23:24:00,67.6,53.3,29.79,SW,223,0.0,0.0,60,0.00,,---,0.00,VWS V14.01,2013-09-15 06:24:00,
2013-09-14 23:29:00,67.5,52.7,29.79,SW,215,0.0,0.0,59,0.00,,---,0.00,VWS V14.01,2013-09-15 06:29:00,
2013-09-14 23:34:00,67.6,52.8,29.79,SSW,204,0.0,0.0,59,0.00,,---,0.00,VWS V14.01,2013-09-15 06:34:00,
2013-09-14 23:39:00,67.6,52.3,29.79,SW,216,0.0,0.0,58,0.00,,---,0.00,VWS V14.01,2013-09-15 06:39:00,
2013-09-14 23:44:00,68.0,52.7,29.79,SW,216,0.0,0.0,58,0.00,,---,0.00,VWS V14.01,2013-09-15 06:44:00,
2013-09-14 23:49:00,68.2,52.9,29.79,SW,216,0.0,0.0,58,0.00,,---,0.00,VWS V14.01,2013-09-15 06:49:00,
2013-09-14 23:54:00,68.2,52.4,29.79,SW,217,0.0,0.0,57,0.00,,---,0.00,VWS V14.01,2013-09-15 06:54:00,
2013-09-14 23:59:00,68.4,52.5,29.79,SW,217,0.0,0.0,57,0.00,,---,0.00,VWS V14.01,2013-09-15 06:59:00,